Location: Kalberh�ni
(46.4610°N, 7.2453°E)
Time: 04:47:56
(UTC+00:00)

Cosmos 2333 Rocket - Pass Details

Date: 31 October 2021
Orbit: 837 x 865 km, 70.8° (Epoch: 05 December)

Event Time Altitude Azimuth Distance (km) Brightness Sun altitude
Rises 18:38:54 0° 232° (SW) 3,395 6.0 -24.8°
Reaches altitude 10° 18:41:31 10° 240° (WSW) 2,467 5.3 -25.3°
Maximum altitude 18:46:44 37° 307° (NW) 1,308 3.6 -26.2°
Drops below altitude 10° 18:52:01 10° 14° (NNE) 2,498 4.6 -27.1°
Enters shadow 18:52:20 - 16° (NNE) 2,601 4.7 -27.1°
